Change the Weather History Date:

Thursday, April 11, 2013

  Actual Average (KEVV) Record (KEVV)
Temperature  
Mean Temperature 56 °F 55 °F  
Max Temperature 67 °F 66 °F 88 °F (1930)
Min Temperature 43 °F 43 °F 26 °F (1973)
Degree Days  
Heating Degree Days 8 11  
Month to date heating degree days 137  
Since 1 July heating degree days 4303  
Cooling Degree Days 0 1  
Month to date cooling degree days 3  
Year to date cooling degree days 6  
Growing Degree Days 6 (Base 50)    
Moisture  
Dew Point 54 °F    
Average Humidity 89    
Maximum Humidity 95    
Minimum Humidity 74    
Precipitation  
Precipitation 0.66 in 0.14 in 1.77 in (1944)
Month to date precipitation 1.48  
Year to date precipitation 11.99  
Snow  
Snow 0.00 in 0.00 in 0.00 in (2002)
Month to date snowfall 0.1  
Since 1 July snowfall 11.8  
Snow Depth -    
Sea Level Pressure  
Sea Level Pressure 29.68 in    
Wind  
Wind Speed 12 mph (WSW)    
Max Wind Speed 21 mph    
Max Gust Speed 32 mph    
Visibility 8 miles    
Events Rain , Thunderstorm    
T = Trace of Precipitation, MM = Missing Value Source: NWS Daily Summary

Daily Weather History Graph

Daily Weather History Graph

Search for Another Location

Airport or City:

Trip Planner

Search our weather history database for the weather conditions in past years. The results will help you decide how hot, cold, wet, or windy it might be!

Date:

Astronomy

Apr. 11, 2013 Rise Set
Actual Time 6:22 AM CDT 7:25 PM CDT
Civil Twilight 5:55 AM CDT 7:52 PM CDT
Nautical Twilight 5:23 AM CDT 8:24 PM CDT
Astronomical Twilight 4:49 AM CDT 8:57 PM CDT
Moon 6:55 AM CDT (4/11) 8:57 PM CDT (4/11)
Length of Visible Light 13h 56m
Length of Day
13h 02m
New Moon, 2% of the Moon is Illuminated
Apr 11
New Moon
Apr 18
First Quarter
Apr 25
Full
May 2
Last Quarter
May 9
New

Hourly Weather History & Observations

Time (CDT) Temp. Windchill Dew Point Humidity Pressure Visibility Wind Dir Wind Speed Gust Speed Precip Events Conditions
12:15 AM 70.0 °F - 62.6 °F 77% 29.76 in 10.0 mi WSW 16.1 mph 32.2 mph N/A Rain , Thunderstorm Light Thunderstorms and Rain
12:35 AM 67.8 °F - 64.2 °F 88% 29.75 in 10.0 mi West 12.7 mph 18.4 mph 0.01 in Rain , Thunderstorm Light Thunderstorms and Rain
12:55 AM 66.6 °F - 63.7 °F 90% 29.76 in 7.0 mi West 12.7 mph - 0.03 in Rain Rain
1:15 AM 65.5 °F - 63.5 °F 93% 29.74 in 5.0 mi WNW 5.8 mph - 0.07 in Rain Heavy Rain
1:35 AM 65.5 °F - 63.7 °F 94% 29.78 in 4.0 mi SW 9.2 mph - 0.21 in Rain , Thunderstorm Heavy Thunderstorms and Rain
1:55 AM 65.7 °F - 64.0 °F 94% 29.74 in 7.0 mi West 5.8 mph - 0.29 in Rain , Thunderstorm Rain
2:15 AM 66.6 °F - 63.7 °F 90% 29.75 in 7.0 mi SW 18.4 mph 27.6 mph 0.04 in Rain , Thunderstorm Rain
2:35 AM 66.4 °F - 61.9 °F 85% 29.73 in 7.0 mi SSW 20.7 mph 31.1 mph 0.09 in Rain Rain
2:55 AM 66.2 °F - 61.3 °F 84% 29.71 in 7.0 mi SSW 18.4 mph 29.9 mph 0.14 in Rain , Thunderstorm Rain
3:15 AM 66.2 °F - 61.7 °F 85% 29.69 in 5.0 mi SSW 15.0 mph 23.0 mph 0.08 in Rain Heavy Rain
3:35 AM 65.5 °F - 62.6 °F 90% 29.66 in 10.0 mi SSE 12.7 mph - 0.11 in Rain Light Rain
3:55 AM 65.3 °F - 62.8 °F 92% 29.64 in 10.0 mi SSE 10.4 mph - 0.11 in   Clear
4:15 AM 65.7 °F - 63.0 °F 91% 29.62 in 10.0 mi SSE 12.7 mph - N/A   Clear
4:35 AM 65.5 °F - 63.1 °F 92% 29.62 in 10.0 mi SE 11.5 mph - N/A   Clear
4:55 AM 65.8 °F - 63.5 °F 92% 29.64 in 10.0 mi SSE 11.5 mph - N/A   Scattered Clouds
5:15 AM 65.7 °F - 63.5 °F 93% 29.64 in 10.0 mi SSE 8.1 mph - N/A   Mostly Cloudy
5:35 AM 65.3 °F - 63.5 °F 94% 29.65 in 10.0 mi South 8.1 mph - N/A   Scattered Clouds
5:55 AM 65.8 °F - 63.5 °F 92% 29.64 in 10.0 mi SSE 11.5 mph - N/A   Mostly Cloudy
6:15 AM 66.2 °F - 63.5 °F 91% 29.63 in 10.0 mi SSE 11.5 mph - N/A   Scattered Clouds
6:35 AM 66.6 °F - 63.5 °F 90% 29.63 in 10.0 mi South 15.0 mph - N/A   Mostly Cloudy
6:55 AM 66.7 °F - 62.6 °F 86% 29.64 in 10.0 mi South 17.3 mph - N/A   Mostly Cloudy
7:15 AM 66.7 °F - 62.6 °F 86% 29.64 in 10.0 mi South 16.1 mph - N/A   Mostly Cloudy
7:35 AM 67.1 °F - 62.6 °F 85% 29.65 in 10.0 mi South 17.3 mph - N/A   Overcast
7:55 AM 61.9 °F - 58.6 °F 89% 29.67 in 10.0 mi West 10.4 mph - N/A   Light Drizzle
8:15 AM 60.4 °F - 57.7 °F 91% 29.69 in 10.0 mi West 10.4 mph - N/A   Overcast
8:35 AM 60.3 °F - 57.6 °F 91% 29.69 in 10.0 mi West 5.8 mph - N/A   Overcast
8:55 AM 60.1 °F - 57.4 °F 91% 29.68 in 10.0 mi West 5.8 mph - N/A   Overcast
9:15 AM 59.9 °F - 57.0 °F 90% 29.68 in 10.0 mi West 5.8 mph - N/A   Overcast
9:35 AM 59.5 °F - 56.5 °F 90% 29.68 in 10.0 mi West 5.8 mph - N/A   Overcast
10:15 AM 58.3 °F - 56.3 °F 93% 29.72 in 2.0 mi West 9.2 mph - N/A   Drizzle
10:35 AM 57.2 °F - 55.4 °F 94% 29.71 in 2.5 mi West 6.9 mph - 0.03 in   Drizzle
10:55 AM 57.2 °F - 55.4 °F 94% 29.71 in 5.0 mi Calm Calm - 0.05 in Rain Rain
11:15 AM 57.2 °F - 55.4 °F 94% 29.71 in 7.0 mi WSW 9.2 mph - N/A   Light Drizzle
11:35 AM 56.8 °F - 54.9 °F 93% 29.69 in 10.0 mi SW 3.5 mph - N/A Rain Rain
11:55 AM 56.5 °F - 54.7 °F 94% 29.67 in 7.0 mi SSE 4.6 mph - 0.01 in Rain Light Rain
12:15 PM 57.2 °F - 55.4 °F 94% 29.68 in 10.0 mi SSW 5.8 mph - 0.01 in Rain Light Rain
12:35 PM 56.8 °F - 55.0 °F 94% 29.70 in 10.0 mi SW 9.2 mph - 0.01 in   Light Drizzle
12:55 PM 56.5 °F - 54.5 °F 93% 29.68 in 7.0 mi WSW 5.8 mph - 0.01 in   Light Drizzle
1:15 PM 55.9 °F - 54.1 °F 94% 29.68 in 7.0 mi West 11.5 mph - 0.01 in Rain Rain
1:35 PM 55.6 °F - 53.8 °F 94% 29.68 in 10.0 mi West 8.1 mph - 0.01 in Rain Light Rain
1:55 PM 55.4 °F - 53.2 °F 92% 29.68 in 7.0 mi West 8.1 mph - 0.02 in Rain Light Rain
2:15 PM 54.5 °F - 52.5 °F 93% 29.68 in 7.0 mi West 10.4 mph - N/A   Overcast
2:35 PM 53.6 °F - 51.6 °F 93% 29.67 in 7.0 mi West 6.9 mph - N/A   Overcast
2:55 PM 54.0 °F - 52.0 °F 93% 29.67 in 7.0 mi West 8.1 mph - N/A Rain Light Rain
3:15 PM 53.8 °F - 51.8 °F 93% 29.67 in 5.0 mi WNW 10.4 mph - N/A   Overcast
3:35 PM 53.1 °F - 51.4 °F 94% 29.66 in 2.5 mi WNW 13.8 mph - N/A   Overcast
3:55 PM 52.7 °F - 51.3 °F 95% 29.64 in 2.0 mi WNW 13.8 mph - N/A   Overcast
4:15 PM 52.0 °F - 50.5 °F 95% 29.66 in 1.2 mi West 13.8 mph 20.7 mph N/A   Overcast
4:35 PM 52.3 °F - 50.9 °F 95% 29.64 in 5.0 mi WNW 10.4 mph - N/A   Overcast
4:55 PM 52.3 °F - 50.7 °F 94% 29.64 in 7.0 mi WNW 8.1 mph - N/A   Overcast
5:15 PM 52.3 °F - 50.4 °F 93% 29.65 in 7.0 mi West 6.9 mph - N/A   Overcast
5:35 PM 52.7 °F - 50.2 °F 91% 29.63 in 7.0 mi WNW 8.1 mph - N/A   Overcast
5:55 PM 52.7 °F - 50.4 °F 92% 29.64 in 7.0 mi West 8.1 mph - N/A   Overcast
6:15 PM 52.9 °F - 50.4 °F 91% 29.63 in 10.0 mi West 8.1 mph - N/A   Overcast
6:35 PM 52.5 °F - 49.5 °F 89% 29.66 in 10.0 mi West 13.8 mph 18.4 mph N/A   Overcast
6:55 PM 52.0 °F - 48.6 °F 88% 29.64 in 7.0 mi West 15.0 mph - N/A   Overcast
7:15 PM 51.8 °F - 48.4 °F 88% 29.64 in 7.0 mi WNW 12.7 mph - N/A   Overcast
7:35 PM 51.4 °F - 47.3 °F 86% 29.64 in 10.0 mi West 17.3 mph 23.0 mph N/A   Overcast
7:55 PM 50.4 °F - 46.4 °F 86% 29.65 in 7.0 mi West 16.1 mph 20.7 mph N/A   Overcast
8:15 PM 50.4 °F - 45.5 °F 83% 29.66 in 10.0 mi West 13.8 mph 20.7 mph N/A   Overcast
8:35 PM 50.2 °F - 45.5 °F 84% 29.67 in 10.0 mi WNW 17.3 mph 21.9 mph N/A   Mostly Cloudy
8:55 PM 49.3 °F - 43.9 °F 82% 29.69 in 10.0 mi West 11.5 mph - N/A   Mostly Cloudy
9:15 PM 48.7 °F - 43.7 °F 83% 29.70 in 10.0 mi West 9.2 mph - N/A   Mostly Cloudy
9:35 PM 48.2 °F - 43.2 °F 83% 29.70 in 10.0 mi West 11.5 mph - N/A   Clear
9:55 PM 47.7 °F - 41.9 °F 80% 29.70 in 10.0 mi WNW 12.7 mph 20.7 mph N/A   Clear
10:15 PM 47.1 °F - 40.8 °F 79% 29.71 in 10.0 mi WNW 19.6 mph 24.2 mph N/A   Clear
10:35 PM 45.9 °F 39.1 °F 38.3 °F 75% 29.72 in 10.0 mi West 16.1 mph - N/A   Clear
10:55 PM 44.8 °F 38.0 °F 38.3 °F 78% 29.72 in 10.0 mi WNW 15.0 mph 23.0 mph N/A   Clear
11:15 PM 44.1 °F 37.4 °F 37.8 °F 78% 29.74 in 10.0 mi West 13.8 mph 17.3 mph N/A   Clear
11:35 PM 43.9 °F 36.2 °F 36.1 °F 74% 29.74 in 10.0 mi WNW 17.3 mph 25.3 mph N/A   Clear
11:55 PM 43.3 °F 35.8 °F 35.8 °F 75% 29.75 in 10.0 mi West 16.1 mph 19.6 mph N/A   Clear